When you browse on this site, cookies collect data to enhance your experience and personalize the content and advertising you see.
Visit our Privacy Policy to learn more. By continuing to use the site, you agree to this use of cookies and data.
  • en France
  • Liste des pays
  • À 7 jours
  • Température de l'eau
  • Carte météo
  • Widgets météo
  • user-avatar
    Se connecter

    Météo par heure à Bracknell

    Ce jour, 16 Septembre, Lundi

    Heure Température Précipitation Vent Pression Humidité
    00:00 +16°C° 0 mm 2 m/s 759 mmHg 93%
    01:00 +16°C° 0 mm 1 m/s 759 mmHg 93%
    02:00 +16°C° 0 mm 1 m/s 759 mmHg 92%
    03:00 +16°C° 0 mm 1 m/s 758 mmHg 92%
    04:00 +16°C° 0 mm 1 m/s 758 mmHg 92%
    05:00 +16°C° 0 mm 1 m/s 758 mmHg 93%
    06:00 +16°C° 0 mm 1 m/s 758 mmHg 94%
    07:00 +16°C° 0 mm 1 m/s 758 mmHg 92%
    08:00 +16°C° 0 mm 2 m/s 759 mmHg 90%
    09:00 +17°C° 0 mm 2 m/s 759 mmHg 89%
    10:00 +17°C° 0 mm 2 m/s 759 mmHg 88%
    11:00 +17°C° 0 mm 2 m/s 759 mmHg 86%
    12:00 +18°C° 0 mm 2 m/s 759 mmHg 85%
    13:00 +18°C° 0 mm 2 m/s 759 mmHg 84%
    14:00 +18°C° 0 mm 2 m/s 759 mmHg 84%
    15:00 +18°C° 0 mm 2 m/s 759 mmHg 83%
    16:00 +18°C° 0 mm 2 m/s 759 mmHg 85%
    17:00 +17°C° 0 mm 2 m/s 759 mmHg 86%
    18:00 +17°C° 0 mm 2 m/s 759 mmHg 88%
    19:00 +16°C° 0 mm 2 m/s 759 mmHg 88%
    20:00 +16°C° 0 mm 2 m/s 760 mmHg 88%
    21:00 +15°C° 0 mm 2 m/s 760 mmHg 87%
    22:00 +15°C° 0 mm 2 m/s 760 mmHg 87%
    23:00 +14°C° 0 mm 2 m/s 760 mmHg 86%

    Demain, 17 Septembre, Mardi

    Heure Température Précipitation Vent Pression Humidité
    00:00 +14°C° 0 mm 2 m/s 760 mmHg 86%
    01:00 +13°C° 0 mm 2 m/s 760 mmHg 86%
    02:00 +10°C° 0 mm 2 m/s 760 mmHg 87%
    03:00 +9°C° 0 mm 3 m/s 760 mmHg 88%
    04:00 +9°C° 0 mm 2 m/s 760 mmHg 89%
    05:00 +8°C° 0 mm 2 m/s 760 mmHg 91%
    06:00 +8°C° 0 mm 2 m/s 761 mmHg 92%
    07:00 +10°C° 0 mm 3 m/s 761 mmHg 85%
    08:00 +12°C° 0 mm 3 m/s 761 mmHg 78%
    09:00 +13°C° 0 mm 3 m/s 762 mmHg 70%
    10:00 +14°C° 0 mm 3 m/s 762 mmHg 65%
    11:00 +16°C° 0 mm 3 m/s 762 mmHg 60%
    12:00 +18°C° 0 mm 3 m/s 762 mmHg 55%
    13:00 +18°C° 0 mm 3 m/s 762 mmHg 54%
    14:00 +18°C° 0 mm 3 m/s 762 mmHg 54%
    15:00 +18°C° 0 mm 4 m/s 762 mmHg 53%
    16:00 +17°C° 0 mm 3 m/s 762 mmHg 57%
    17:00 +14°C° 0 mm 3 m/s 762 mmHg 60%
    18:00 +13°C° 0 mm 3 m/s 762 mmHg 64%
    19:00 +12°C° 0 mm 3 m/s 763 mmHg 66%
    20:00 +11°C° 0 mm 3 m/s 763 mmHg 69%
    21:00 +10°C° 0 mm 3 m/s 764 mmHg 72%
    22:00 +10°C° 0 mm 3 m/s 764 mmHg 72%
    23:00 +9°C° 0 mm 3 m/s 764 mmHg 73%

    Après-demain, 18 Septembre, Mercredi

    Heure Température Précipitation Vent Pression Humidité
    00:00 +8°C° 0 mm 2 m/s 764 mmHg 74%
    01:00 +8°C° 0 mm 2 m/s 764 mmHg 75%
    02:00 +8°C° 0 mm 2 m/s 764 mmHg 77%
    03:00 +7°C° 0 mm 2 m/s 764 mmHg 79%
    04:00 +7°C° 0 mm 2 m/s 764 mmHg 81%
    05:00 +7°C° 0 mm 2 m/s 765 mmHg 83%
    06:00 +7°C° 0 mm 2 m/s 765 mmHg 85%
    07:00 +8°C° 0 mm 2 m/s 765 mmHg 77%
    08:00 +10°C° 0 mm 2 m/s 765 mmHg 69%
    09:00 +13°C° 0 mm 2 m/s 765 mmHg 62%
    10:00 +14°C° 0 mm 2 m/s 765 mmHg 57%
    11:00 +15°C° 0 mm 2 m/s 765 mmHg 52%
    12:00 +17°C° 0 mm 2 m/s 765 mmHg 46%
    13:00 +17°C° 0 mm 2 m/s 765 mmHg 46%
    14:00 +18°C° 0 mm 2 m/s 765 mmHg 46%
    15:00 +18°C° 0 mm 2 m/s 765 mmHg 45%
    16:00 +17°C° 0 mm 2 m/s 764 mmHg 51%
    17:00 +16°C° 0 mm 2 m/s 764 mmHg 56%
    18:00 +14°C° 0 mm 2 m/s 764 mmHg 62%
    19:00 +14°C° 0 mm 2 m/s 764 mmHg 63%
    20:00 +13°C° 0 mm 1 m/s 765 mmHg 65%
    21:00 +12°C° 0 mm 1 m/s 765 mmHg 67%
    22:00 +12°C° 0 mm 1 m/s 765 mmHg 69%
    23:00 +11°C° 0 mm 1 m/s 765 mmHg 71%

    19 Septembre, Jeudi

    Heure Température Précipitation Vent Pression Humidité
    00:00 +10°C° 0 mm 0 m/s 765 mmHg 73%
    01:00 +10°C° 0 mm 0 m/s 765 mmHg 75%
    02:00 +10°C° 0 mm 1 m/s 765 mmHg 77%
    03:00 +10°C° 0 mm 1 m/s 765 mmHg 79%
    04:00 +10°C° 0 mm 1 m/s 765 mmHg 81%
    05:00 +10°C° 0 mm 1 m/s 765 mmHg 83%
    06:00 +10°C° 0 mm 1 m/s 765 mmHg 85%
    07:00 +12°C° 0 mm 1 m/s 766 mmHg 79%
    08:00 +13°C° 0 mm 1 m/s 766 mmHg 73%
    09:00 +15°C° 0 mm 1 m/s 766 mmHg 67%
    10:00 +18°C° 0 mm 1 m/s 766 mmHg 62%
    11:00 +19°C° 0 mm 1 m/s 766 mmHg 57%
    12:00 +21°C° 0 mm 1 m/s 766 mmHg 53%
    13:00 +21°C° 0 mm 1 m/s 766 mmHg 52%
    14:00 +21°C° 0 mm 1 m/s 766 mmHg 51%
    15:00 +22°C° 0 mm 1 m/s 765 mmHg 50%
    16:00 +20°C° 0 mm 1 m/s 765 mmHg 56%
    17:00 +19°C° 0 mm 1 m/s 765 mmHg 61%
    18:00 +18°C° 0 mm 1 m/s 765 mmHg 67%
    19:00 +16°C° 0 mm 1 m/s 765 mmHg 70%
    20:00 +15°C° 0 mm 1 m/s 766 mmHg 73%
    21:00 +14°C° 0 mm 1 m/s 766 mmHg 75%
    22:00 +14°C° 0 mm 1 m/s 766 mmHg 77%
    23:00 +13°C° 0 mm 1 m/s 765 mmHg 79%

    20 Septembre, Vendredi

    Heure Température Précipitation Vent Pression Humidité
    00:00 +13°C° 0 mm 1 m/s 765 mmHg 81%
    01:00 +13°C° 0 mm 1 m/s 765 mmHg 84%
    02:00 +12°C° 0 mm 1 m/s 765 mmHg 86%
    03:00 +12°C° 0 mm 1 m/s 765 mmHg 88%
    04:00 +12°C° 0 mm 1 m/s 765 mmHg 90%
    05:00 +12°C° 0 mm 1 m/s 764 mmHg 91%
    06:00 +12°C° 0 mm 1 m/s 764 mmHg 93%
    07:00 +13°C° 0 mm 2 m/s 764 mmHg 87%
    08:00 +14°C° 0 mm 3 m/s 764 mmHg 81%
    09:00 +17°C° 0 mm 4 m/s 764 mmHg 75%
    10:00 +18°C° 0 mm 4 m/s 764 mmHg 69%
    11:00 +19°C° 0 mm 4 m/s 764 mmHg 62%
    12:00 +20°C° 0 mm 4 m/s 764 mmHg 56%
    13:00 +20°C° 0 mm 4 m/s 763 mmHg 54%
    14:00 +21°C° 0 mm 4 m/s 762 mmHg 51%
    15:00 +21°C° 0 mm 5 m/s 762 mmHg 49%
    16:00 +19°C° 0 mm 4 m/s 761 mmHg 53%
    17:00 +17°C° 0 mm 4 m/s 761 mmHg 57%
    18:00 +15°C° 0 mm 4 m/s 760 mmHg 61%
    19:00 +14°C° 0 mm 4 m/s 760 mmHg 64%
    20:00 +13°C° 0 mm 4 m/s 760 mmHg 68%
    21:00 +12°C° 0 mm 4 m/s 760 mmHg 71%
    22:00 +12°C° 0 mm 4 m/s 760 mmHg 70%
    23:00 +12°C° 0 mm 4 m/s 760 mmHg 68%

    21 Septembre, Samedi

    Heure Température Précipitation Vent Pression Humidité
    00:00 +12°C° 0 mm 4 m/s 759 mmHg 67%
    01:00 +12°C° 0 mm 4 m/s 759 mmHg 67%
    02:00 +11°C° 0 mm 4 m/s 758 mmHg 67%
    03:00 +11°C° 0 mm 3 m/s 758 mmHg 67%
    04:00 +11°C° 0 mm 3 m/s 757 mmHg 68%
    05:00 +11°C° 0 mm 4 m/s 757 mmHg 69%
    06:00 +10°C° 0 mm 4 m/s 757 mmHg 70%
    07:00 +12°C° 0 mm 4 m/s 756 mmHg 66%
    08:00 +14°C° 0 mm 4 m/s 756 mmHg 63%
    09:00 +15°C° 0 mm 5 m/s 756 mmHg 59%
    10:00 +17°C° 0 mm 5 m/s 756 mmHg 56%
    11:00 +19°C° 0 mm 5 m/s 756 mmHg 53%
    12:00 +20°C° 0 mm 5 m/s 755 mmHg 49%
    13:00 +21°C° 0 mm 5 m/s 755 mmHg 50%
    14:00 +21°C° 0 mm 4 m/s 754 mmHg 50%
    15:00 +21°C° 0 mm 4 m/s 754 mmHg 50%
    16:00 +20°C° 0 mm 4 m/s 754 mmHg 55%
    17:00 +19°C° 0 mm 3 m/s 753 mmHg 59%
    18:00 +17°C° 0 mm 3 m/s 753 mmHg 64%
    19:00 +17°C° 0 mm 3 m/s 753 mmHg 65%
    20:00 +17°C° 0 mm 3 m/s 753 mmHg 66%
    21:00 +17°C° 0 mm 3 m/s 753 mmHg 68%
    22:00 +17°C° 0 mm 3 m/s 753 mmHg 71%
    23:00 +17°C° 0 mm 3 m/s 752 mmHg 74%
    Voir plus